SVA1084 OEJN-OERK

Flight info

Callsign SVA1084
Flight time 1h 5m
Altitude 39000
Route EGREP T532 DAW DCT KAVUR
Aircraft B77W/H-SDE2E3FGHIRWXY/L

Departure

Time 2026-05-07 18:09
Airport King Abdulaziz International Airport (OEJN)

Arrival

Time 2026-05-07 19:15
Airport King Khalid International Airport (OERK)
Time Latitude Longitude Altitude Speed Heading
2026-05-07 17:34 21.66359 39.17593 52 ft 0 kts 193°
2026-05-07 17:59 21.66376 39.17598 51 ft 4 kts 193°
2026-05-07 17:59 21.66403 39.17604 51 ft 4 kts 193°
2026-05-07 17:59 21.66426 39.17610 51 ft 4 kts 189°
2026-05-07 18:00 21.66448 39.17607 51 ft 4 kts 126°
2026-05-07 18:00 21.66458 39.17581 51 ft 3 kts 102°
2026-05-07 18:00 21.66461 39.17566 51 ft 1 kts 101°
2026-05-07 18:00 21.66461 39.17565 51 ft 2 kts 101°
2026-05-07 18:04 21.66457 39.17591 57 ft 6 kts 101°
2026-05-07 18:04 21.66449 39.17634 58 ft 6 kts 101°
2026-05-07 18:05 21.66444 39.17680 56 ft 7 kts 93°
2026-05-07 18:05 21.66443 39.17736 56 ft 8 kts 85°
2026-05-07 18:05 21.66475 39.17776 58 ft 7 kts
2026-05-07 18:05 21.66530 39.17765 54 ft 9 kts 348°
2026-05-07 18:06 21.66568 39.17767 57 ft 5 kts 31°
2026-05-07 18:06 21.66588 39.17804 56 ft 7 kts 68°
2026-05-07 18:06 21.66600 39.17838 57 ft 8 kts 70°
2026-05-07 18:06 21.66614 39.17878 54 ft 0 kts 70°
2026-05-07 18:07 21.66617 39.17889 56 ft 3 kts 70°
2026-05-07 18:07 21.66628 39.17922 57 ft 6 kts 70°
2026-05-07 18:07 21.66648 39.17977 54 ft 9 kts 66°
2026-05-07 18:07 21.66705 39.18016 57 ft 11 kts
2026-05-07 18:08 21.66773 39.17998 56 ft 3 kts 339°
2026-05-07 18:08 21.66774 39.17998 56 ft 0 kts 339°
2026-05-07 18:08 21.66775 39.17997 56 ft 0 kts 339°
2026-05-07 18:08 21.66882 39.17955 56 ft 47 kts 340°
2026-05-07 18:09 21.67498 39.17712 52 ft 138 kts 340°
2026-05-07 18:09 21.68565 39.17292 426 ft 173 kts 340°
2026-05-07 18:09 21.69691 39.16837 1387 ft 174 kts 340°
2026-05-07 18:09 21.70874 39.16481 2168 ft 187 kts 351°
2026-05-07 18:10 21.72241 39.16248 2660 ft 206 kts 350°
2026-05-07 18:10 21.73677 39.16014 3372 ft 217 kts 355°
2026-05-07 18:10 21.75282 39.16273 3654 ft 253 kts 20°
2026-05-07 18:10 21.76858 39.17237 4301 ft 267 kts 35°
2026-05-07 18:11 21.78364 39.18407 5259 ft 268 kts 38°
2026-05-07 18:11 21.79919 39.19652 5806 ft 285 kts 38°
2026-05-07 18:11 21.81532 39.20939 6012 ft 294 kts 37°
2026-05-07 18:11 21.83198 39.22253 6013 ft 297 kts 37°
2026-05-07 18:12 21.84861 39.23552 6102 ft 294 kts 37°
2026-05-07 18:12 21.86474 39.24912 6741 ft 294 kts 41°
2026-05-07 18:12 21.87985 39.26367 7876 ft 291 kts 42°
2026-05-07 18:12 21.89483 39.27849 8832 ft 296 kts 42°
2026-05-07 18:13 21.91012 39.29362 9741 ft 301 kts 41°
2026-05-07 18:13 21.92565 39.30894 10619 ft 308 kts 41°
2026-05-07 18:13 21.94217 39.32514 11028 ft 336 kts 41°
2026-05-07 18:13 21.96034 39.34287 11334 ft 366 kts 41°
2026-05-07 18:14 21.97955 39.36160 12127 ft 379 kts 41°
2026-05-07 18:14 21.99938 39.38090 13121 ft 388 kts 41°
2026-05-07 18:14 22.01958 39.40055 14117 ft 396 kts 41°
2026-05-07 18:14 22.04025 39.42064 15096 ft 402 kts 41°
2026-05-07 18:15 22.06117 39.44097 16119 ft 408 kts 41°
2026-05-07 18:15 22.08239 39.46160 17150 ft 415 kts 41°
2026-05-07 18:15 22.10403 39.48264 18133 ft 422 kts 41°
2026-05-07 18:15 22.12604 39.50404 18955 ft 429 kts 41°
2026-05-07 18:16 22.14829 39.52569 19667 ft 436 kts 41°
2026-05-07 18:16 22.17095 39.54775 19917 ft 440 kts 41°
2026-05-07 18:16 22.19374 39.56995 19913 ft 441 kts 41°
2026-05-07 18:16 22.21647 39.59210 19916 ft 439 kts 41°
2026-05-07 18:17 22.23917 39.61424 20000 ft 441 kts 41°
2026-05-07 18:17 22.26207 39.63658 20789 ft 447 kts 41°
2026-05-07 18:17 22.28528 39.65923 21742 ft 451 kts 41°
2026-05-07 18:17 22.30863 39.68202 22640 ft 456 kts 41°
2026-05-07 18:18 22.33235 39.70519 23445 ft 463 kts 41°
2026-05-07 18:18 22.35644 39.72870 24125 ft 470 kts 41°
2026-05-07 18:18 22.38080 39.75253 24777 ft 477 kts 41°
2026-05-07 18:18 22.40552 39.77673 25475 ft 483 kts 41°
2026-05-07 18:19 22.43061 39.80129 26112 ft 490 kts 41°
2026-05-07 18:19 22.45604 39.82619 26801 ft 495 kts 40°
2026-05-07 18:19 22.48147 39.85097 27397 ft 503 kts 40°
2026-05-07 18:19 22.50815 39.87654 28028 ft 510 kts 40°
2026-05-07 18:20 22.53492 39.90198 28652 ft 515 kts 40°
2026-05-07 18:20 22.56202 39.92766 29305 ft 520 kts 40°
2026-05-07 18:20 22.58933 39.95360 29906 ft 526 kts 40°
2026-05-07 18:20 22.61664 39.97960 30363 ft 532 kts 40°
2026-05-07 18:21 22.64490 40.00658 30809 ft 538 kts 40°
2026-05-07 18:21 22.67277 40.03323 31225 ft 544 kts 40°
2026-05-07 18:21 22.70122 40.06046 31624 ft 549 kts 40°
2026-05-07 18:21 22.72988 40.08792 31990 ft 554 kts 40°
2026-05-07 18:22 22.75881 40.11565 32415 ft 557 kts 40°
2026-05-07 18:22 22.77851 40.13454 32747 ft 558 kts 40°
2026-05-07 18:22 22.81743 40.17188 33412 ft 560 kts 40°
2026-05-07 18:22 22.84667 40.19996 33887 ft 561 kts 40°
2026-05-07 18:23 22.87592 40.22805 34330 ft 563 kts 40°
2026-05-07 18:23 22.90487 40.25588 34750 ft 564 kts 40°
2026-05-07 18:23 22.93425 40.28412 35198 ft 564 kts 41°
2026-05-07 18:23 22.96358 40.31235 35654 ft 564 kts 41°
2026-05-07 18:24 22.99289 40.34057 36082 ft 564 kts 41°
2026-05-07 18:24 23.02259 40.36918 36512 ft 564 kts 41°
2026-05-07 18:24 23.05191 40.39744 36949 ft 564 kts 41°
2026-05-07 18:24 23.08088 40.42538 37371 ft 564 kts 41°
2026-05-07 18:25 23.11019 40.45367 37760 ft 564 kts 42°
2026-05-07 18:25 23.13920 40.48170 38075 ft 566 kts 42°
2026-05-07 18:25 23.16871 40.51022 38014 ft 567 kts 42°
2026-05-07 18:26 23.22696 40.56670 38013 ft 565 kts 44°
2026-05-07 18:26 23.27766 40.63328 38215 ft 570 kts 61°
2026-05-07 18:26 23.29714 40.66991 38658 ft 563 kts 68°
2026-05-07 18:27 23.31268 40.70924 38986 ft 554 kts 74°
2026-05-07 18:27 23.33887 40.78683 39008 ft 550 kts 76°
2026-05-07 18:28 23.36481 40.86509 39016 ft 549 kts 75°
2026-05-07 18:28 23.39136 40.94276 39015 ft 546 kts 75°
2026-05-07 18:29 23.41815 41.02000 39013 ft 545 kts 75°
2026-05-07 18:29 23.44493 41.09733 39035 ft 547 kts 75°
2026-05-07 18:30 23.47170 41.17500 39031 ft 549 kts 75°
2026-05-07 18:30 23.49852 41.25296 39016 ft 549 kts 75°
2026-05-07 18:31 23.52522 41.33073 39023 ft 548 kts 75°
2026-05-07 18:31 23.55186 41.40845 39018 ft 548 kts 75°
2026-05-07 18:32 23.57846 41.48624 39018 ft 547 kts 75°
2026-05-07 18:32 23.60498 41.56394 39017 ft 547 kts 75°
2026-05-07 18:33 23.63173 41.64252 39039 ft 558 kts 75°
2026-05-07 18:33 23.65888 41.72233 39018 ft 565 kts 74°
2026-05-07 18:34 23.68582 41.80309 39019 ft 566 kts 76°
2026-05-07 18:34 23.71113 41.88416 39005 ft 562 kts 76°
2026-05-07 18:35 23.73630 41.96466 39017 ft 560 kts 76°
2026-05-07 18:35 23.76235 42.04483 39018 ft 562 kts 74°
2026-05-07 18:36 23.78976 42.12419 39024 ft 563 kts 73°
2026-05-07 18:36 23.81739 42.20401 39025 ft 562 kts 74°
2026-05-07 18:37 23.84469 42.28394 39020 ft 561 kts 74°
2026-05-07 18:37 23.87181 42.36398 39030 ft 562 kts 74°
2026-05-07 18:38 23.89892 42.44412 39023 ft 563 kts 74°
2026-05-07 18:38 23.92606 42.52437 39028 ft 562 kts 74°
2026-05-07 18:39 23.95312 42.60452 39034 ft 562 kts 74°
2026-05-07 18:39 23.98008 42.68458 39038 ft 562 kts 74°
2026-05-07 18:40 24.00711 42.76503 39041 ft 563 kts 74°
2026-05-07 18:40 24.03411 42.84550 39041 ft 564 kts 74°
2026-05-07 18:41 24.06105 42.92612 39047 ft 563 kts 74°
2026-05-07 18:41 24.08761 43.00663 39055 ft 563 kts 74°
2026-05-07 18:42 24.11413 43.08741 39063 ft 565 kts 74°
2026-05-07 18:42 24.14070 43.16839 39063 ft 566 kts 74°
2026-05-07 18:43 24.16730 43.24949 39062 ft 566 kts 74°
2026-05-07 18:43 24.19384 43.33057 39069 ft 565 kts 74°
2026-05-07 18:44 24.22032 43.41164 39078 ft 565 kts 74°
2026-05-07 18:44 24.24680 43.49292 39080 ft 567 kts 74°
2026-05-07 18:45 24.27328 43.57435 39080 ft 568 kts 74°
2026-05-07 18:45 24.29975 43.65590 39080 ft 567 kts 74°
2026-05-07 18:46 24.32613 43.73732 39079 ft 567 kts 74°
2026-05-07 18:46 24.35247 43.81883 39088 ft 567 kts 74°
2026-05-07 18:47 24.37863 43.89994 39095 ft 568 kts 74°
2026-05-07 18:47 24.40511 43.98223 39101 ft 569 kts 74°
2026-05-07 18:48 24.43142 44.06411 39102 ft 569 kts 74°
2026-05-07 18:48 24.45764 44.14591 39100 ft 568 kts 74°
2026-05-07 18:49 24.47873 44.22869 39096 ft 560 kts 84°
2026-05-07 18:49 24.48967 44.29861 39101 ft 558 kts 86°
2026-05-07 18:50 24.50208 44.38270 39090 ft 558 kts 85°
2026-05-07 18:50 24.51549 44.46657 39084 ft 557 kts 84°
2026-05-07 18:51 24.53181 44.56390 39068 ft 557 kts 84°
2026-05-07 18:51 24.54356 44.63380 38982 ft 553 kts 84°
2026-05-07 18:51 24.55048 44.67517 38507 ft 549 kts 84°
2026-05-07 18:52 24.55731 44.71629 37890 ft 544 kts 84°
2026-05-07 18:52 24.56405 44.75701 37328 ft 540 kts 84°
2026-05-07 18:52 24.57071 44.79746 36795 ft 535 kts 84°
2026-05-07 18:52 24.57730 44.83750 36305 ft 530 kts 84°
2026-05-07 18:53 24.58382 44.87718 35857 ft 525 kts 84°
2026-05-07 18:53 24.59026 44.91646 35416 ft 520 kts 84°
2026-05-07 18:53 24.59661 44.95526 34960 ft 516 kts 84°
2026-05-07 18:53 24.60293 44.99394 34509 ft 511 kts 84°
2026-05-07 18:54 24.60919 45.03232 34057 ft 507 kts 84°
2026-05-07 18:54 24.61537 45.07027 33569 ft 503 kts 84°
2026-05-07 18:54 24.62150 45.10795 33115 ft 498 kts 84°
2026-05-07 18:54 24.62754 45.14516 32679 ft 492 kts 84°
2026-05-07 18:55 24.63352 45.18204 32252 ft 487 kts 84°
2026-05-07 18:55 24.63942 45.21845 31829 ft 482 kts 83°
2026-05-07 18:55 24.64526 45.25461 31399 ft 478 kts 83°
2026-05-07 18:55 24.65103 45.29039 30982 ft 473 kts 83°
2026-05-07 18:56 24.65674 45.32585 30576 ft 469 kts 83°
2026-05-07 18:56 24.66238 45.36091 30181 ft 464 kts 83°
2026-05-07 18:56 24.66797 45.39571 29743 ft 460 kts 83°
2026-05-07 18:56 24.67349 45.43010 29277 ft 455 kts 83°
2026-05-07 18:57 24.67896 45.46423 28786 ft 452 kts 83°
2026-05-07 18:57 24.68431 45.49769 28326 ft 448 kts 83°
2026-05-07 18:57 24.68971 45.53147 27777 ft 437 kts 83°
2026-05-07 18:57 24.69487 45.56388 26727 ft 438 kts 83°
2026-05-07 18:58 24.70015 45.59716 25478 ft 445 kts 82°
2026-05-07 18:58 24.70556 45.63124 24342 ft 448 kts 82°
2026-05-07 18:58 24.71090 45.66485 23325 ft 445 kts 82°
2026-05-07 18:58 24.71696 45.69765 22236 ft 442 kts 78°
2026-05-07 18:59 24.72530 45.73042 21192 ft 437 kts 75°
2026-05-07 18:59 24.73426 45.76160 20298 ft 429 kts 74°
2026-05-07 18:59 24.74337 45.79254 19437 ft 421 kts 74°
2026-05-07 18:59 24.75218 45.82289 18596 ft 413 kts 74°
2026-05-07 19:00 24.76077 45.85318 17677 ft 406 kts 75°
2026-05-07 19:00 24.76896 45.88266 16749 ft 400 kts 75°
2026-05-07 19:00 24.77684 45.91143 15864 ft 394 kts 76°
2026-05-07 19:00 24.78464 45.94007 15010 ft 388 kts 76°
2026-05-07 19:01 24.79239 45.96867 14162 ft 382 kts 76°
2026-05-07 19:01 24.79984 45.99621 13287 ft 377 kts 76°
2026-05-07 19:01 24.80738 46.02409 12346 ft 374 kts 75°
2026-05-07 19:01 24.81544 46.05115 11419 ft 371 kts 69°
2026-05-07 19:02 24.82771 46.07612 10613 ft 371 kts 56°
2026-05-07 19:02 24.84352 46.09801 10327 ft 360 kts 47°
2026-05-07 19:02 24.86074 46.11735 10194 ft 348 kts 45°
2026-05-07 19:02 24.87748 46.13588 10108 ft 335 kts 45°
2026-05-07 19:03 24.89366 46.15379 10038 ft 323 kts 45°
2026-05-07 19:03 24.90916 46.17101 9991 ft 312 kts 45°
2026-05-07 19:03 24.92430 46.18786 9992 ft 307 kts 45°
2026-05-07 19:03 24.93928 46.20458 10003 ft 310 kts 45°
2026-05-07 19:04 24.95450 46.22160 10006 ft 312 kts 45°
2026-05-07 19:04 24.96973 46.23866 10015 ft 312 kts 45°
2026-05-07 19:04 24.98489 46.25565 10007 ft 311 kts 46°
2026-05-07 19:04 25.00005 46.27264 10002 ft 311 kts 45°
2026-05-07 19:05 25.01522 46.28966 9998 ft 311 kts 46°
2026-05-07 19:05 25.03020 46.30648 10006 ft 312 kts 46°
2026-05-07 19:05 25.04541 46.32355 10006 ft 312 kts 46°
2026-05-07 19:05 25.06061 46.34063 10004 ft 312 kts 46°
2026-05-07 19:06 25.07578 46.35767 9898 ft 311 kts 46°
2026-05-07 19:06 25.10667 46.39085 9269 ft 304 kts 36°
2026-05-07 19:06 25.12463 46.40282 8883 ft 306 kts 28°
2026-05-07 19:07 25.14345 46.41355 8581 ft 303 kts 28°
2026-05-07 19:07 25.16199 46.42433 8314 ft 300 kts 29°
2026-05-07 19:07 25.18027 46.43535 8026 ft 298 kts 30°
2026-05-07 19:07 25.19854 46.44654 7729 ft 296 kts 31°
2026-05-07 19:08 25.21584 46.45783 7405 ft 288 kts 40°
2026-05-07 19:08 25.22836 46.47462 6931 ft 281 kts 68°
2026-05-07 19:08 25.23243 46.49497 6534 ft 267 kts 94°
2026-05-07 19:08 25.22881 46.51471 6344 ft 259 kts 111°
2026-05-07 19:09 25.22065 46.53195 6160 ft 251 kts 129°
2026-05-07 19:09 25.20846 46.54525 6088 ft 247 kts 138°
2026-05-07 19:09 25.19515 46.55787 6037 ft 250 kts 138°
2026-05-07 19:09 25.18187 46.57032 6002 ft 251 kts 141°
2026-05-07 19:10 25.16774 46.58084 5992 ft 244 kts 148°
2026-05-07 19:10 25.15315 46.59008 5847 ft 235 kts 149°
2026-05-07 19:10 25.13900 46.59894 5530 ft 233 kts 148°
2026-05-07 19:10 25.12546 46.60750 5268 ft 218 kts 147°
2026-05-07 19:11 25.11267 46.61563 5006 ft 200 kts 147°
2026-05-07 19:11 25.10129 46.62287 4756 ft 182 kts 146°
2026-05-07 19:11 25.09079 46.62955 4512 ft 163 kts 145°
2026-05-07 19:11 25.08151 46.63546 4317 ft 151 kts 144°
2026-05-07 19:12 25.07250 46.64122 4136 ft 149 kts 144°
2026-05-07 19:12 25.06357 46.64691 3951 ft 148 kts 144°
2026-05-07 19:12 25.05464 46.65260 3786 ft 149 kts 144°
2026-05-07 19:12 25.04554 46.65840 3601 ft 151 kts 147°
2026-05-07 19:13 25.03637 46.66422 3409 ft 152 kts 147°
2026-05-07 19:13 25.02722 46.67001 3198 ft 152 kts 146°
2026-05-07 19:13 25.01805 46.67588 3012 ft 154 kts 146°
2026-05-07 19:13 25.00875 46.68179 2794 ft 154 kts 146°
2026-05-07 19:14 24.99957 46.68770 2581 ft 154 kts 148°
2026-05-07 19:14 24.99021 46.69355 2352 ft 157 kts 147°
2026-05-07 19:14 24.98067 46.69959 2157 ft 158 kts 146°
2026-05-07 19:14 24.97120 46.70563 2056 ft 150 kts 149°
2026-05-07 19:15 24.96335 46.71058 2053 ft 108 kts 150°
2026-05-07 19:15 24.95859 46.71359 2050 ft 45 kts 152°
2026-05-07 19:15 24.95610 46.71423 2054 ft 27 kts 185°
2026-05-07 19:15 24.95503 46.71374 2059 ft 15 kts 220°
2026-05-07 19:16 24.95440 46.71286 2059 ft 15 kts 237°
2026-05-07 19:16 24.95388 46.71186 2060 ft 15 kts 240°
2026-05-07 19:16 24.95345 46.71101 2063 ft 12 kts 242°
2026-05-07 19:16 24.95358 46.71020 2060 ft 12 kts 315°
2026-05-07 19:17 24.95427 46.70969 2060 ft 12 kts 329°
2026-05-07 19:17 24.95499 46.70922 2060 ft 12 kts 329°
2026-05-07 19:17 24.95572 46.70875 2058 ft 12 kts 329°
2026-05-07 19:17 24.95644 46.70828 2059 ft 12 kts 329°
2026-05-07 19:18 24.95717 46.70783 2060 ft 12 kts 331°
2026-05-07 19:18 24.95787 46.70742 2060 ft 7 kts 330°
2026-05-07 19:18 24.95824 46.70707 2062 ft 7 kts 320°
2026-05-07 19:18 24.95872 46.70676 2062 ft 8 kts 329°
2026-05-07 19:19 24.95889 46.70619 2058 ft 9 kts 268°
2026-05-07 19:19 24.95887 46.70573 2056 ft 3 kts 266°
2026-05-07 19:19 24.95886 46.70560 2056 ft 0 kts 266°
2026-05-07 19:19 24.95886 46.70559 2056 ft 0 kts 266°